TimeCDT,TemperatureF,Dew PointF,Humidity,Sea Level PressureIn,VisibilityMPH,Wind Direction,Wind SpeedMPH,Gust SpeedMPH,PrecipitationIn,Events,Conditions,WindDirDegrees,DateUTC
12:52 AM,37.9,32.0,79,30.33,-9999.0,Calm,Calm,-,N/A,,Unknown,0,2012-10-07 05:52:00
1:52 AM,37.9,30.9,76,30.34,-9999.0,Calm,Calm,-,N/A,,Unknown,0,2012-10-07 06:52:00
2:52 AM,35.1,28.9,78,30.35,-9999.0,Calm,Calm,-,N/A,,Unknown,0,2012-10-07 07:52:00
3:52 AM,32.0,28.9,88,30.33,-9999.0,Calm,Calm,-,N/A,,Unknown,0,2012-10-07 08:52:00
4:52 AM,30.0,27.0,88,30.32,-9999.0,Calm,Calm,-,N/A,,Unknown,0,2012-10-07 09:52:00
5:52 AM,28.9,26.1,89,30.32,-9999.0,Calm,Calm,-,N/A,,Unknown,0,2012-10-07 10:52:00
6:52 AM,28.0,24.1,85,30.33,-9999.0,Calm,Calm,-,N/A,,Unknown,0,2012-10-07 11:52:00
7:52 AM,28.0,25.0,88,30.34,-9999.0,Calm,Calm,-,N/A,,Unknown,0,2012-10-07 12:52:00
8:52 AM,36.0,28.9,76,30.35,-9999.0,SSW,3.5,-,N/A,,Unknown,210,2012-10-07 13:52:00
9:52 AM,44.1,30.0,58,30.34,-9999.0,Variable,3.5,-,N/A,,Unknown,0,2012-10-07 14:52:00
10:52 AM,48.0,26.1,42,30.34,-9999.0,WNW,10.4,-,N/A,,Unknown,300,2012-10-07 15:52:00
11:52 AM,51.1,25.0,36,30.31,-9999.0,Variable,3.5,-,N/A,,Unknown,0,2012-10-07 16:52:00
12:52 PM,53.1,24.1,32,30.29,-9999.0,Variable,5.8,-,N/A,,Unknown,0,2012-10-07 17:52:00
1:52 PM,55.0,24.1,30,30.25,-9999.0,Variable,5.8,-,N/A,,Unknown,0,2012-10-07 18:52:00
2:52 PM,55.0,23.0,29,30.22,-9999.0,North,-9999.0,-,N/A,,Unknown,0,2012-10-07 19:52:00
3:52 PM,55.9,21.9,27,30.20,-9999.0,Variable,5.8,-,N/A,,Unknown,0,2012-10-07 20:52:00
4:52 PM,55.9,21.9,27,30.18,-9999.0,SW,3.5,-,N/A,,Unknown,220,2012-10-07 21:52:00
5:52 PM,55.0,23.0,29,30.18,-9999.0,Calm,Calm,-,N/A,,Unknown,0,2012-10-07 22:52:00
6:52 PM,48.0,27.0,44,30.18,-9999.0,Calm,Calm,-,N/A,,Unknown,0,2012-10-07 23:52:00
7:52 PM,42.1,32.0,67,30.19,-9999.0,Calm,Calm,-,N/A,,Unknown,0,2012-10-08 00:52:00
8:52 PM,39.0,30.9,73,30.19,-9999.0,South,3.5,-,N/A,,Unknown,180,2012-10-08 01:52:00
9:52 PM,37.9,28.9,70,30.19,-9999.0,Calm,Calm,-,N/A,,Unknown,0,2012-10-08 02:52:00
10:52 PM,41.0,28.0,60,30.18,-9999.0,South,4.6,-,N/A,,Unknown,190,2012-10-08 03:52:00
11:52 PM,39.0,28.0,65,30.16,-9999.0,South,3.5,-,N/A,,Unknown,180,2012-10-08 04:52:00